This demonstration page uses our WeatherBlox Daily Observations layout. Learn more.

Left ArrowRight Arrow

39.92423, -83.80882

Hourly Observations for March 18, 2018

Temp ( °F °C ) Dew Point ( °F °C ) Humidity (%) Winds ( mph kmh ) Pressure ( in mb ) Visibility ( mi km ) Precip ( " mm )
12:56 am 00:56 Clear 32 undefined 24 -4.4 73 73 NNE 8 13 30.02 1017 10 16 N/A
1:56 am 01:56 Clear 28 -2.2 23 -5 81 81 NE 5 7 30.03 1017 10 16 N/A
2:56 am 02:56 Clear 29 -1.7 24 -4.4 82 82 N N/A 30.05 1018 10 16 N/A
3:56 am 03:56 Clear 25 -3.9 23 -5 92 92 N 6 9 30.05 1018 10 16 N/A
4:56 am 04:56 Clear 22 -5.6 20 -6.7 92 92 N N/A 30.05 1018 10 16 N/A
5:56 am 05:56 Clear 22 -5.6 20 -6.7 92 92 NNE 3 6 30.06 1018 10 16 N/A
6:56 am 06:56 Clear 23 -5 21 -6.1 92 92 N N/A 30.09 1019 9 14 N/A
7:56 am 07:56 Sunny 21 -6.1 20 -6.7 96 96 N 3 6 30.10 1019 10 16 N/A
8:56 am 08:56 Sunny 32 undefined 28 -2.2 85 85 N N/A 30.11 1020 10 16 N/A
9:56 am 09:56 Sunny 38 3.3 33 0.6 83 83 ENE 3 6 30.11 1020 10 16 N/A
10:56 am 10:56 Sunny 40 4.4 20 -6.7 45 45 SE 6 9 30.11 1020 10 16 N/A
11:56 am 11:56 Sunny 44 6.7 19 -7.2 37 37 VRB 6 9 30.11 1020 10 16 N/A
12:56 pm 12:56 Sunny 47 8.3 19 -7.2 33 33 ENE 5 7 30.08 1019 7 11 N/A
1:56 pm 13:56 Sunny 49 9.4 18 -7.8 29 29 N N/A 30.06 1018 10 16 N/A
2:56 pm 14:56 Sunny 51 10.6 19 -7.2 28 28 N N/A 30.03 1017 10 16 N/A
3:56 pm 15:56 Sunny 53 11.7 21 -6.1 28 28 N N/A 30.01 1016 10 16 N/A
4:56 pm 16:56 Sunny 53 11.7 19 -7.2 26 26 N N/A 30.00 1016 10 16 N/A
5:56 pm 17:56 Sunny 53 11.7 21 -6.1 28 28 N N/A 29.97 1015 10 16 N/A
6:56 pm 18:56 Sunny 51 10.6 21 -6.1 31 31 N N/A 29.96 1015 10 16 N/A
7:56 pm 19:56 Clear 49 9.4 22 -5.6 35 35 N N/A 29.96 1014 10 16 N/A
8:56 pm 20:56 Clear 42 5.6 24 -4.4 49 49 N N/A 29.96 1014 10 16 N/A
9:56 pm 21:56 Clear 38 3.3 28 -2.2 68 68 ENE 3 6 29.95 1014 10 16 N/A
10:56 pm 22:56 Clear 38 3.3 24 -4.4 57 57 NNE 7 11 29.95 1014 10 16 N/A
11:56 pm 23:56 Clear 35 1.7 23 -5 61 61 N N/A 29.93 1014 10 16 N/A

Powered by AerisWeather